Location: Newark
(6.1167°N, 1.2167°E)
Time: 02:14:08
(UTC+00:00)

Hubble Space Telescope - Pass Details

Date: 21 October 2019
Orbit: 536 x 540 km, 28.5° (Epoch: 17 November)

Event Time Altitude Azimuth Distance (km) Brightness Sun altitude
Exits shadow 04:21:05 - 200° (SSW) 2,031 3.6 -20.4°
Reaches altitude 10° 04:22:00 10° 192° (SSW) 1,778 3.4 -20.2°
Maximum altitude 04:24:44 17° 150° (SSE) 1,382 3.3 -19.5°
Drops below altitude 10° 04:27:28 10° 108° (ESE) 1,776 4.6 -18.9°
Sets 04:30:20 0° 87° (E) 2,665 5.9 -18.2°
